Weather History for Resolute, NU

Change the Weather History Date:

Saturday, July 20, 2013

  Actual Average Record
Temperature  
Mean Temperature 38 °F -  
Max Temperature 43 °F 41 °F 55 °F (1997)
Min Temperature 32 °F 33 °F 28 °F (2008)
Degree Days  
Heating Degree Days 28    
Moisture  
Dew Point 35 °F    
Average Humidity 87    
Maximum Humidity 93    
Minimum Humidity 71    
Precipitation  
Precipitation 0.00 in - - ()
Sea Level Pressure  
Sea Level Pressure 29.97 in    
Wind  
Wind Speed 6 mph ()    
Max Wind Speed 15 mph    
Max Gust Speed -    
Visibility 14.3 miles    
Events Fog    
Averages and records for this station are not official NWS values.
T = Trace of Precipitation, MM = Missing Value Source: Averaged Metar Reports

Daily Weather History Graph

Daily Weather History Graph

Search for Another Location

Airport:

Trip Planner

Search our weather history database for the weather conditions in past years. The results will help you decide how hot, cold, wet, or windy it might be!

Date:

Astronomy

Dec. 31, 1969 Rise Set
Actual Time Sun does not rise Sun does not rise
Civil Twilight Sun does not rise Sun does not rise
Nautical Twilight Sun does not rise Sun does not rise
Astronomical Twilight Sun does not rise Sun does not rise
Moon No Moon Rise No Moon Set
Length of Visible Light 24h 00m
Length of Day
24h 00m
Waxing Gibbous, 94% of the Moon is Illuminated
Jul 20
Waxing Gibbous
Jul 22
Full
Jul 29
Last Quarter
Aug 6
New
Aug 14
First Quarter

Hourly Weather History & Observations

Time (CDT) Temp. Windchill Dew Point Humidity Pressure Visibility Wind Dir Wind Speed Gust Speed Precip Events Conditions
12:00 AM 44.6 °F - 39.2 °F 81% 29.91 in 15.0 mi Calm Calm - N/A   Mostly Cloudy
1:00 AM 45 °F - 39 °F 71% 29.91 in 15 mi ENE 9.2 mph - -   Partly Cloudy
1:00 AM 44.6 °F 39.7 °F 39.2 °F 81% 29.91 in 15.0 mi ENE 9.2 mph - N/A   Scattered Clouds
2:00 AM 42.8 °F 35.4 °F 39.2 °F 87% 29.91 in 15.0 mi NE 15.0 mph - N/A   Partly Cloudy
3:00 AM 42.8 °F 40.1 °F 37.4 °F 81% 29.92 in 15.0 mi SE 4.6 mph - N/A   Partly Cloudy
4:00 AM 37.4 °F 32.8 °F 35.6 °F 93% 29.93 in 15.0 mi SSE 5.8 mph - N/A   Partly Cloudy
5:00 AM 35.6 °F 32.8 °F 33.8 °F 93% 29.93 in 15.0 mi South 3.5 mph - N/A   Partly Cloudy
5:31 AM - - - N/A% - 10.0 mi East 8.1 mph - N/A   Partly Cloudy
6:00 AM 39.2 °F 33.0 °F 35.6 °F 87% 29.94 in 10.0 mi East 9.2 mph - N/A   Partly Cloudy
7:00 AM 37 °F - 34 °F 85% 29.96 in 10 mi East 8.1 mph - -   Scattered Clouds
7:00 AM 37.4 °F 31.4 °F 33.8 °F 87% 29.96 in 10.0 mi East 8.1 mph - N/A   Scattered Clouds
8:00 AM 35.6 °F 29.2 °F 33.8 °F 93% 29.96 in 15.0 mi SE 8.1 mph - N/A   Partly Cloudy
9:00 AM 37.4 °F 32.8 °F 33.8 °F 87% 29.97 in 15.0 mi ESE 5.8 mph - N/A   Partly Cloudy
10:00 AM 37.4 °F 31.4 °F 33.8 °F 87% 29.97 in 15.0 mi ESE 8.1 mph - N/A   Scattered Clouds
11:00 AM 37.4 °F 28.9 °F 33.8 °F 87% 29.97 in 15.0 mi SE 13.8 mph - N/A   Mostly Cloudy
12:00 PM 37.4 °F 30.3 °F 35.6 °F 93% 29.97 in 15.0 mi SSE 10.4 mph - N/A   Scattered Clouds
1:00 PM 38 °F - 35 °F 84% 29.99 in 15 mi SSE 8.1 mph - -   Scattered Clouds
1:00 PM 37.4 °F 31.4 °F 35.6 °F 93% 29.99 in 15.0 mi SSE 8.1 mph - N/A   Mostly Cloudy
2:00 PM 37.4 °F 32.1 °F 33.8 °F 87% 29.99 in 15.0 mi South 6.9 mph - N/A   Partly Cloudy
3:00 PM 39.2 °F 34.2 °F 35.6 °F 87% 29.98 in 15.0 mi SSE 6.9 mph - N/A Fog Partly Cloudy
4:00 PM 39.2 °F 37.0 °F 35.6 °F 87% 29.99 in 15.0 mi WNW 3.5 mph - N/A Fog Partly Cloudy
5:00 PM 35.6 °F 29.9 °F 33.8 °F 93% 30.00 in 15.0 mi South 6.9 mph - N/A Fog Partly Cloudy
6:00 PM 37.4 °F 33.8 °F 33.8 °F 87% 29.99 in 15.0 mi South 4.6 mph - N/A Fog Partly Cloudy
7:00 PM 37 °F - 33 °F 79% 30.00 in 15 mi SSE 4.6 mph - -   Clear
7:00 PM 37.4 °F 33.8 °F 32.0 °F 81% 30.00 in 15.0 mi SSE 4.6 mph - N/A   Partly Cloudy
8:00 PM 33.8 °F 28.6 °F 32.0 °F 93% 30.01 in 15.0 mi SSE 5.8 mph - N/A Fog Partly Cloudy
9:00 PM 35.6 °F 30.7 °F 32.0 °F 87% 30.01 in 15.0 mi SSE 5.8 mph - N/A   Partly Cloudy
10:00 PM 32.0 °F 24.8 °F 30.2 °F 93% 30.02 in 15.0 mi SSE 8.1 mph - N/A   Partly Cloudy
11:00 PM 32.0 °F 28.7 °F 30.2 °F 93% 30.02 in 15.0 mi SSE 3.5 mph - N/A   Partly Cloudy